Weather History for KCKC - October, 2014

Change the Weather History Date:

Saturday, October 18, 2014

  Actual Average Record
Temperature  
Mean Temperature 34 °F -  
Max Temperature 42 °F 45 °F 62 °F (2003)
Min Temperature 26 °F 31 °F 17 °F (2015)
Degree Days  
Heating Degree Days 31    
Moisture  
Dew Point 24 °F    
Average Humidity 73    
Maximum Humidity 93    
Minimum Humidity 42    
Precipitation  
Precipitation 0.00 in - - ()
Sea Level Pressure  
Sea Level Pressure 30.11 in    
Wind  
Wind Speed 10 mph (WNW)    
Max Wind Speed 18 mph    
Max Gust Speed 26 mph    
Visibility 10 miles    
Events Snow    
Averages and records for this station are not official NWS values.
T = Trace of Precipitation, MM = Missing Value Source: NWS Daily Summary

Daily Weather History Graph

Daily Weather History Graph

Search for Another Location

Airport or City:

Trip Planner

Search our weather history database for the weather conditions in past years. The results will help you decide how hot, cold, wet, or windy it might be!

Date:

Astronomy

Oct. 18, 2014 Rise Set
Actual Time 7:25 AM CDT 6:07 PM CDT
Civil Twilight 6:53 AM CDT 6:38 PM CDT
Nautical Twilight 6:17 AM CDT 7:14 PM CDT
Astronomical Twilight 5:41 AM CDT 7:50 PM CDT
Moon 2:02 AM CDT (10/18) 3:46 PM CDT (10/18)
Length of Visible Light 11h 45m
Length of Day
10h 42m
Waning Crescent, 24% of the Moon is Illuminated
Oct 18
Waning Crescent
Oct 23
New
Oct 30
First Quarter
Nov 6
Full
Nov 14
Last Quarter

Hourly Weather History & Observations

Time (CDT) Temp. Windchill Dew Point Humidity Pressure Visibility Wind Dir Wind Speed Gust Speed Precip Events Conditions
12:14 AM 33.8 °F 25.3 °F 28.4 °F 81% 30.01 in 7.0 mi NNW 11.5 mph 25.3 mph N/A Snow Light Snow
12:33 AM 33.8 °F 23.5 °F 26.6 °F 75% 30.02 in 10.0 mi NNW 16.1 mph 21.9 mph N/A Snow Light Snow
12:53 AM 33.8 °F 24.8 °F 26.6 °F 75% 30.02 in 10.0 mi NNW 12.7 mph 21.9 mph N/A   Mostly Cloudy
1:14 AM 33.8 °F 24.8 °F 26.6 °F 75% 30.03 in 10.0 mi NNW 12.7 mph 24.2 mph N/A   Mostly Cloudy
1:34 AM 33.8 °F 24.3 °F 26.6 °F 75% 30.04 in 10.0 mi NNW 13.8 mph 19.6 mph N/A   Mostly Cloudy
1:53 AM 32.0 °F 21.6 °F 24.8 °F 75% 30.04 in 10.0 mi NNW 15.0 mph 26.5 mph N/A   Mostly Cloudy
2:14 AM 30.2 °F 19.3 °F 24.8 °F 80% 30.05 in 10.0 mi NNW 15.0 mph 25.3 mph N/A   Clear
2:33 AM 30.2 °F 18.1 °F 23.0 °F 75% 30.05 in 10.0 mi NNW 18.4 mph 26.5 mph N/A   Clear
2:54 AM 30.2 °F 18.1 °F 23.0 °F 75% 30.05 in 10.0 mi NNW 18.4 mph 24.2 mph N/A   Clear
3:13 AM 28.4 °F 18.5 °F 23.0 °F 80% 30.06 in 10.0 mi NNW 11.5 mph 20.7 mph N/A   Clear
3:33 AM 28.4 °F 16.6 °F 24.8 °F 86% 30.06 in 7.0 mi NNW 16.1 mph 20.7 mph N/A   Scattered Clouds
3:54 AM 28.4 °F 16.6 °F 23.0 °F 80% 30.07 in 10.0 mi NNW 16.1 mph 20.7 mph N/A   Scattered Clouds
4:13 AM 28.4 °F 18.0 °F 21.2 °F 74% 30.07 in 10.0 mi NNW 12.7 mph 17.3 mph N/A   Clear
4:33 AM 28.4 °F 17.5 °F 21.2 °F 74% 30.08 in 10.0 mi NNW 13.8 mph 19.6 mph N/A   Clear
4:54 AM 28.4 °F 19.1 °F 23.0 °F 80% 30.09 in 10.0 mi NNW 10.4 mph 18.4 mph N/A   Clear
5:13 AM 28.4 °F 18.0 °F 23.0 °F 80% 30.09 in 10.0 mi NNW 12.7 mph 17.3 mph N/A   Scattered Clouds
5:34 AM 26.6 °F 15.2 °F 21.2 °F 80% 30.10 in 10.0 mi NNW 13.8 mph 19.6 mph N/A   Scattered Clouds
5:53 AM 26.6 °F 16.8 °F 21.2 °F 80% 30.10 in 10.0 mi North 10.4 mph 18.4 mph N/A   Clear
6:14 AM 26.6 °F 16.8 °F 21.2 °F 80% 30.11 in 10.0 mi North 10.4 mph 17.3 mph N/A   Clear
6:33 AM 26.6 °F 16.2 °F 21.2 °F 80% 30.12 in 10.0 mi NNW 11.5 mph - N/A   Mostly Cloudy
6:54 AM 26.6 °F 18.2 °F 21.2 °F 80% 30.12 in 10.0 mi NNW 8.1 mph - N/A   Mostly Cloudy
7:14 AM 26.6 °F 19.1 °F 21.2 °F 80% 30.14 in 10.0 mi NNW 6.9 mph - N/A   Mostly Cloudy
7:33 AM 26.6 °F 15.7 °F 21.2 °F 80% 30.14 in 10.0 mi North 12.7 mph - N/A   Mostly Cloudy
7:54 AM 26.6 °F 15.7 °F 21.2 °F 80% 30.15 in 10.0 mi NNW 12.7 mph 17.3 mph N/A   Scattered Clouds
8:13 AM 26.6 °F 15.7 °F 21.2 °F 80% 30.15 in 10.0 mi NNW 12.7 mph 19.6 mph N/A   Clear
8:33 AM 28.4 °F 19.1 °F 21.2 °F 74% 30.16 in 10.0 mi NNW 10.4 mph 17.3 mph N/A   Clear
8:54 AM 28.4 °F 17.5 °F 21.2 °F 74% 30.16 in 10.0 mi NNW 13.8 mph 17.3 mph N/A   Clear
9:13 AM 30.2 °F 22.6 °F 21.2 °F 69% 30.17 in 10.0 mi NW 8.1 mph - N/A   Clear
9:33 AM 32.0 °F 24.2 °F 21.2 °F 64% 30.18 in 10.0 mi NNW 9.2 mph - N/A   Clear
9:53 AM 32.0 °F 23.6 °F 21.2 °F 64% 30.18 in 10.0 mi NNW 10.4 mph - N/A   Clear
10:14 AM 33.8 °F 26.4 °F 21.2 °F 60% 30.17 in 10.0 mi North 9.2 mph - N/A   Clear
10:33 AM 33.8 °F 28.6 °F 21.2 °F 60% 30.18 in 10.0 mi NNW 5.8 mph - N/A   Clear
10:53 AM 35.6 °F 31.7 °F 21.2 °F 56% 30.17 in 10.0 mi NW 4.6 mph - N/A   Clear
11:14 AM 35.6 °F 32.8 °F 21.2 °F 56% 30.18 in 10.0 mi North 3.5 mph - N/A   Clear
11:33 AM 37.4 °F 34.9 °F 21.2 °F 52% 30.18 in 10.0 mi North 3.5 mph - N/A   Clear
11:54 AM 37.4 °F - 21.2 °F 52% 30.18 in 10.0 mi Calm Calm - N/A   Clear
12:14 PM 37.4 °F 34.9 °F 23.0 °F 56% 30.17 in 10.0 mi North 3.5 mph - N/A   Clear
12:33 PM 39.2 °F 35.9 °F 23.0 °F 52% 30.17 in 10.0 mi South 4.6 mph - N/A   Clear
12:54 PM 39.2 °F 35.9 °F 23.0 °F 52% 30.17 in 10.0 mi SE 4.6 mph - N/A   Clear
1:14 PM 41.0 °F 38.0 °F 21.2 °F 45% 30.16 in 10.0 mi SSW 4.6 mph - N/A   Clear
1:33 PM 42.8 °F 38.0 °F 21.2 °F 42% 30.17 in 10.0 mi South 8.1 mph - N/A   Clear
1:54 PM 41.0 °F 38.0 °F 24.8 °F 53% 30.16 in 10.0 mi SW 4.6 mph - N/A   Clear
2:13 PM 41.0 °F 36.4 °F 26.6 °F 57% 30.15 in 10.0 mi SSE 6.9 mph - N/A   Clear
2:33 PM 39.2 °F 35.0 °F 26.6 °F 61% 30.15 in 10.0 mi SSE 5.8 mph - N/A   Clear
2:54 PM 39.2 °F 34.2 °F 24.8 °F 56% 30.14 in 10.0 mi South 6.9 mph - N/A   Clear
3:13 PM 39.2 °F 34.2 °F 24.8 °F 56% 30.15 in 10.0 mi South 6.9 mph - N/A   Clear
3:33 PM 39.2 °F 35.9 °F 24.8 °F 56% 30.14 in 10.0 mi South 4.6 mph - N/A   Clear
3:54 PM 39.2 °F 34.2 °F 26.6 °F 61% 30.14 in 10.0 mi South 6.9 mph - N/A   Clear
4:13 PM 39.2 °F 35.0 °F 26.6 °F 61% 30.14 in 10.0 mi South 5.8 mph - N/A   Clear
4:34 PM 37.4 °F 33.8 °F 26.6 °F 65% 30.13 in 10.0 mi South 4.6 mph - N/A   Clear
4:54 PM 35.6 °F 30.7 °F 26.6 °F 70% 30.14 in 10.0 mi South 5.8 mph - N/A   Clear
5:13 PM 35.6 °F 31.7 °F 26.6 °F 70% 30.14 in 10.0 mi South 4.6 mph - N/A   Clear
5:34 PM 33.8 °F 29.6 °F 24.8 °F 70% 30.13 in 10.0 mi SSW 4.6 mph - N/A   Clear
5:53 PM 33.8 °F 29.6 °F 26.6 °F 75% 30.13 in 10.0 mi South 4.6 mph - N/A   Clear
6:14 PM 30.2 °F 25.4 °F 26.6 °F 86% 30.13 in 10.0 mi South 4.6 mph - N/A   Clear
6:33 PM 30.2 °F 25.4 °F 26.6 °F 86% 30.13 in 10.0 mi South 4.6 mph - N/A   Clear
6:54 PM 30.2 °F 24.3 °F 26.6 °F 86% 30.13 in 10.0 mi SSW 5.8 mph - N/A   Clear
7:13 PM 30.2 °F 25.4 °F 26.6 °F 86% 30.12 in 10.0 mi SSW 4.6 mph - N/A   Clear
7:34 PM 30.2 °F 25.4 °F 26.6 °F 86% 30.12 in 10.0 mi SSW 4.6 mph - N/A   Clear
7:53 PM 30.2 °F 26.7 °F 26.6 °F 86% 30.11 in 10.0 mi SSW 3.5 mph - N/A   Clear
8:13 PM 30.2 °F - 26.6 °F 86% 30.11 in 10.0 mi Calm Calm - N/A   Clear
8:34 PM 30.2 °F 25.4 °F 26.6 °F 86% 30.11 in 10.0 mi South 4.6 mph - N/A   Clear
8:53 PM 30.2 °F - 26.6 °F 86% 30.10 in 10.0 mi Calm Calm - N/A   Clear
9:13 PM 30.2 °F - 26.6 °F 86% 30.10 in 10.0 mi Calm Calm - N/A   Clear
9:34 PM 30.2 °F 26.7 °F 26.6 °F 86% 30.10 in 10.0 mi South 3.5 mph - N/A   Clear
9:53 PM 30.2 °F 26.7 °F 26.6 °F 86% 30.08 in 10.0 mi South 3.5 mph - N/A   Clear
10:13 PM 30.2 °F 26.7 °F 26.6 °F 86% 30.08 in 10.0 mi South 3.5 mph - N/A   Clear
10:34 PM 30.2 °F 26.7 °F 26.6 °F 86% 30.07 in 10.0 mi South 3.5 mph - N/A   Clear
10:53 PM 30.2 °F - 26.6 °F 86% 30.07 in 10.0 mi Calm Calm - N/A   Clear
11:13 PM 28.4 °F - 24.8 °F 86% 30.06 in 10.0 mi Calm Calm - N/A   Clear
11:34 PM 28.4 °F 24.6 °F 26.6 °F 93% 30.05 in 10.0 mi SSE 3.5 mph - N/A   Clear
11:54 PM 28.4 °F 24.6 °F 26.6 °F 93% 30.05 in 10.0 mi South 3.5 mph - N/A   Clear